| time (UTC) | temp C | wind direction | speed KPH | gust KPH | rain 1hr cm | rain 24hr cm | rain mn cm | humidity % | barometer mb |
| 20260505082807 | 4 | 0 | 11.3 | 19.3 | 0.00 | 0.41 | 0.00 | 91 | 1020.6 |
| 20260505082305 | 4 | 336 | 11.3 | 20.9 | 0.00 | 0.41 | 0.00 | 91 | 1020.6 |
| 20260505081805 | 4 | 324 | 12.9 | 24.1 | 0.00 | 0.41 | 0.00 | 91 | 1020.6 |
| 20260505081310 | 5 | 350 | 11.3 | 19.3 | 0.00 | 0.41 | 0.00 | 90 | 1020.6 |
| 20260505081306 | 5 | 337 | 11.3 | 24.1 | 0.00 | 0.41 | 0.00 | 90 | 1020.6 |
| 20260505080305 | 6 | 29 | 9.7 | 19.3 | 0.00 | 0.41 | 0.00 | 89 | 1020.6 |
| 20260505075806 | 6 | 23 | 4.8 | 19.3 | 0.00 | 0.41 | 0.00 | 89 | 1020.6 |
| 20260505075306 | 7 | 310 | 1.6 | 8.0 | 0.00 | 0.41 | 0.00 | 89 | 1020.6 |
| 20260505074806 | 7 | 344 | 0.0 | 4.8 | 0.00 | 0.41 | 0.00 | 89 | 1020.6 |
| 20260505074304 | 6 | 111 | 0.0 | 0.0 | 0.00 | 0.41 | 0.00 | 89 | 1020.6 |
| 20260505073806 | 6 | 111 | 0.0 | 0.0 | 0.00 | 0.41 | 0.00 | 88 | 1020.6 |
| 20260505073306 | 6 | 111 | 0.0 | 0.0 | 0.00 | 0.41 | 0.00 | 88 | 1020.6 |
| 20260505072806 | 6 | 111 | 0.0 | 0.0 | 0.00 | 0.41 | 0.00 | 88 | 1020.6 |
| 20260505072305 | 6 | 111 | 0.0 | 0.0 | 0.00 | 0.41 | 0.00 | 88 | 1020.6 |
| 20260505071804 | 6 | 111 | 0.0 | 0.0 | 0.00 | 0.41 | 0.00 | 88 | 1020.6 |
| 20260505071537 | 6 | 111 | 0.0 | 0.0 | 0.00 | 0.41 | 0.00 | 87 | 1020.6 |
| 20260505070803 | 6 | 111 | 0.0 | 0.0 | 0.00 | 0.41 | 0.00 | 88 | 1020.6 |
| 20260505070533 | 6 | 111 | 0.0 | 0.0 | 0.00 | 0.41 | 0.00 | 88 | 1020.6 |
| 20260505065804 | 6 | 111 | 0.0 | 0.0 | 0.00 | 0.41 | 0.00 | 88 | 1020.6 |
| 20260505065303 | 6 | 111 | 0.0 | 0.0 | 0.00 | 0.41 | 0.00 | 88 | 1020.6 |
| 20260505064758 | 6 | 111 | 0.0 | 0.0 | 0.00 | 0.41 | 0.00 | 88 | 1020.6 |
| 20260505064300 | 7 | 111 | 0.0 | 0.0 | 0.00 | 0.41 | 0.00 | 88 | 1020.6 |
| 20260505064033 | 7 | 111 | 0.0 | 0.0 | 0.00 | 0.41 | 0.00 | 88 | 1020.6 |
| 20260505063259 | 7 | 111 | 0.0 | 0.0 | 0.00 | 0.41 | 0.00 | 88 | 1020.6 |
| 20260505062757 | 7 | 111 | 0.0 | 0.0 | 0.00 | 0.41 | 0.00 | 87 | 1020.6 |
| 20260505062257 | 7 | 111 | 0.0 | 0.0 | 0.00 | 0.41 | 0.00 | 87 | 1020.6 |
| 20260505062029 | 7 | 111 | 0.0 | 0.0 | 0.00 | 0.41 | 0.00 | 87 | 1020.6 |
| 20260505061255 | 7 | 111 | 0.0 | 0.0 | 0.00 | 0.41 | 0.00 | 87 | 1020.6 |
| 20260505060754 | 7 | 111 | 0.0 | 0.0 | 0.00 | 0.41 | 0.00 | 87 | 1020.6 |
| 20260505060527 | 7 | 111 | 0.0 | 0.0 | 0.00 | 0.41 | 0.00 | 87 | 1020.6 |
| 20260505055755 | 7 | 111 | 0.0 | 0.0 | 0.00 | 0.41 | 0.41 | 87 | 1020.6 |
| 20260505055255 | 6 | 111 | 0.0 | 0.0 | 0.00 | 0.41 | 0.41 | 87 | 1020.6 |
| 20260505055027 | 6 | 111 | 0.0 | 0.0 | 0.00 | 0.41 | 0.41 | 87 | 1020.6 |
| 20260505054255 | 6 | 111 | 0.0 | 0.0 | 0.00 | 0.41 | 0.41 | 87 | 1020.6 |
| 20260505053754 | 6 | 111 | 0.0 | 0.0 | 0.00 | 0.41 | 0.41 | 87 | 1020.6 |
| 20260505053253 | 6 | 275 | 0.0 | 0.0 | 0.00 | 0.41 | 0.41 | 88 | 1020.6 |
| 20260505052754 | 6 | 275 | 0.0 | 0.0 | 0.00 | 0.41 | 0.41 | 88 | 1020.6 |
| 20260505052524 | 6 | 129 | 0.0 | 0.0 | 0.00 | 0.41 | 0.41 | 87 | 1020.6 |
| 20260505051752 | 6 | 129 | 0.0 | 1.6 | 0.00 | 0.41 | 0.41 | 87 | 1020.6 |
| 20260505051253 | 6 | 99 | 0.0 | 1.6 | 0.00 | 0.41 | 0.41 | 87 | 1020.6 |
| 20260505050755 | 6 | 105 | 0.0 | 0.0 | 0.00 | 0.41 | 0.41 | 87 | 1020.6 |
| 20260505050524 | 6 | 110 | 0.0 | 0.0 | 0.00 | 0.41 | 0.41 | 87 | 1020.6 |
| 20260505041749 | 7 | 263 | 0.0 | 1.6 | 0.13 | 0.41 | 0.41 | 86 | 1020.6 |
| 20260505041248 | 7 | 263 | 0.0 | 1.6 | 0.15 | 0.41 | 0.41 | 86 | 1020.6 |
| 20260505041020 | 7 | 270 | 0.0 | 0.0 | 0.18 | 0.41 | 0.41 | 87 | 1020.6 |
| 20260505040248 | 7 | 271 | 0.0 | 0.0 | 0.23 | 0.41 | 0.41 | 88 | 1020.6 |
| 20260505035749 | 7 | 255 | 0.0 | 0.0 | 0.25 | 0.41 | 0.41 | 88 | 1020.6 |
| 20260505035248 | 7 | 254 | 0.0 | 0.0 | 0.30 | 0.41 | 0.41 | 87 | 1020.6 |
| 20260505034748 | 7 | 264 | 0.0 | 0.0 | 0.33 | 0.41 | 0.41 | 87 | 1020.6 |
| 20260505034248 | 7 | 264 | 0.0 | 1.6 | 0.38 | 0.41 | 0.41 | 86 | 1020.6 |
| 20260505033746 | 7 | 274 | 0.0 | 3.2 | 0.38 | 0.38 | 0.38 | 85 | 1020.6 |
| 20260505033247 | 7 | 276 | 1.6 | 6.4 | 0.36 | 0.36 | 0.38 | 85 | 1020.6 |
| 20260505032753 | 7 | 309 | 3.2 | 6.4 | 0.33 | 0.33 | 0.33 | 85 | 1020.6 |
| 20260505032748 | 7 | 284 | 1.6 | 6.4 | 0.36 | 0.36 | 0.36 | 85 | 1020.6 |
| 20260505031746 | 7 | 271 | 3.2 | 8.0 | 0.28 | 0.28 | 0.30 | 85 | 1020.6 |
| 20260505031518 | 7 | 256 | 4.8 | 11.3 | 0.25 | 0.25 | 0.25 | 84 | 1020.6 |
| 20260505030746 | 7 | 289 | 6.4 | 14.5 | 0.20 | 0.20 | 0.23 | 84 | 1020.6 |
| 20260505030244 | 7 | 279 | 9.7 | 19.3 | 0.18 | 0.18 | 0.20 | 84 | 1020.6 |
| 20260505025745 | 7 | 298 | 11.3 | 22.5 | 0.15 | 0.15 | 0.15 | 84 | 1020.6 |
| 20260505025245 | 7 | 300 | 11.3 | 22.5 | 0.10 | 0.10 | 0.10 | 84 | 1020.6 |
| 20260505025015 | 8 | 303 | 11.3 | 19.3 | 0.08 | 0.08 | 0.08 | 85 | 1020.6 |
| 20260505024245 | 8 | 300 | 9.7 | 17.7 | 0.03 | 0.03 | 0.03 | 83 | 1020.6 |
| 20260505023746 | 8 | 316 | 6.4 | 12.9 | 0.00 | 0.00 | 0.00 | 83 | 1020.6 |
| 20260505023244 | 8 | 298 | 4.8 | 11.3 | 0.00 | 0.00 | 0.00 | 82 | 1020.6 |
| 20260505022745 | 8 | 340 | 4.8 | 11.3 | 0.00 | 0.00 | 0.00 | 81 | 1020.6 |
| 20260505022244 | 8 | 299 | 4.8 | 11.3 | 0.00 | 0.00 | 0.00 | 81 | 1020.6 |
| 20260505021746 | 8 | 303 | 6.4 | 12.9 | 0.00 | 0.00 | 0.00 | 80 | 1020.6 |
| 20260505021513 | 8 | 356 | 8.0 | 16.1 | 0.00 | 0.00 | 0.00 | 78 | 1020.6 |
| 20260505020743 | 8 | 55 | 8.0 | 16.1 | 0.00 | 0.00 | 0.00 | 76 | 1020.6 |
| 20260505020242 | 8 | 243 | 8.0 | 16.1 | 0.00 | 0.00 | 0.00 | 76 | 1020.6 |
| 20260505020015 | 9 | 33 | 8.0 | 16.1 | 0.00 | 0.00 | 0.00 | 75 | 1020.6 |
| 20260505015243 | 9 | 6 | 8.0 | 16.1 | 0.00 | 0.00 | 0.00 | 72 | 1020.6 |
| 20260505014742 | 10 | 345 | 6.4 | 27.4 | 0.00 | 0.00 | 0.00 | 69 | 1020.6 |
| 20260505014244 | 11 | 44 | 3.2 | 27.4 | 0.00 | 0.00 | 0.00 | 62 | 1020.6 |
| 20260505013742 | 11 | 23 | 0.0 | 3.2 | 0.00 | 0.00 | 0.00 | 59 | 1020.6 |
| 20260505013242 | 11 | 53 | 0.0 | 3.2 | 0.00 | 0.00 | 0.00 | 59 | 1020.6 |
| 20260505012742 | 11 | 86 | 0.0 | 0.0 | 0.00 | 0.00 | 0.00 | 59 | 1020.6 |
| 20260505012241 | 11 | 86 | 0.0 | 0.0 | 0.00 | 0.00 | 0.00 | 59 | 1020.6 |
| 20260505011741 | 11 | 86 | 0.0 | 1.6 | 0.00 | 0.00 | 0.00 | 58 | 1020.6 |
| 20260505011240 | 12 | 86 | 0.0 | 1.6 | 0.00 | 0.00 | 0.00 | 57 | 1020.6 |
| 20260505010742 | 12 | 104 | 0.0 | 1.6 | 0.00 | 0.00 | 0.00 | 56 | 1020.6 |
| 20260505010239 | 12 | 131 | 0.0 | 8.0 | 0.00 | 0.00 | 0.00 | 55 | 1020.6 |
| 20260505010010 | 12 | 203 | 1.6 | 11.3 | 0.00 | 0.00 | 0.00 | 54 | 1020.6 |
| 20260505005510 | 12 | 347 | 3.2 | 11.3 | 0.00 | 0.00 | 0.00 | 54 | 1020.6 |
| 20260505004736 | 12 | 122 | 1.6 | 6.4 | 0.00 | 0.00 | 0.00 | 52 | 1020.6 |
| 20260505004237 | 12 | 95 | 1.6 | 4.8 | 0.00 | 0.00 | 0.00 | 51 | 1020.6 |
| 20260505003736 | 12 | 93 | 0.0 | 3.2 | 0.00 | 0.00 | 0.00 | 51 | 1020.6 |
| 20260505003235 | 13 | 285 | 0.0 | 0.0 | 0.00 | 0.00 | 0.00 | 51 | 1020.6 |
| 20260505002733 | 13 | 285 | 0.0 | 0.0 | 0.00 | 0.00 | 0.00 | 51 | 1020.6 |
| 20260505002237 | 13 | 285 | 0.0 | 0.0 | 0.00 | 0.00 | 0.00 | 51 | 1020.6 |
| 20260505001735 | 13 | 285 | 0.0 | 3.2 | 0.00 | 0.00 | 0.00 | 51 | 1020.6 |
| 20260505001231 | 13 | 15 | 1.6 | 4.8 | 0.00 | 0.00 | 0.00 | 52 | 1020.6 |
| 20260505000731 | 13 | 328 | 3.2 | 8.0 | 0.00 | 0.00 | 0.00 | 53 | 1020.6 |
| 20260505000230 | 13 | 327 | 3.2 | 8.0 | 0.00 | 0.00 | 0.00 | 52 | 1020.6 |
| 20260504235727 | 13 | 340 | 4.8 | 8.0 | 0.00 | 0.00 | 0.00 | 53 | 1020.6 |
| 20260504235228 | 13 | 325 | 6.4 | 9.7 | 0.00 | 0.00 | 0.00 | 53 | 1020.6 |
| 20260504234729 | 13 | 305 | 6.4 | 9.7 | 0.00 | 0.00 | 0.00 | 53 | 1020.6 |
| 20260504234227 | 13 | 336 | 6.4 | 9.7 | 0.00 | 0.00 | 0.00 | 52 | 1020.6 |
| 20260504233726 | 13 | 299 | 6.4 | 9.7 | 0.00 | 0.00 | 0.00 | 53 | 1020.6 |
| 20260504233226 | 13 | 313 | 6.4 | 14.5 | 0.00 | 0.00 | 0.00 | 51 | 1020.6 |
| 20260504232727 | 13 | 295 | 8.0 | 14.5 | 0.00 | 0.00 | 0.00 | 52 | 1020.6 |
| 20260504232456 | 13 | 295 | 6.4 | 12.9 | 0.00 | 0.00 | 0.00 | 53 | 1020.6 |
| 20260504231726 | 13 | 319 | 6.4 | 12.9 | 0.00 | 0.00 | 0.00 | 53 | 1020.6 |
| 20260504231225 | 13 | 320 | 6.4 | 12.9 | 0.00 | 0.00 | 0.00 | 54 | 1020.6 |
| 20260504230727 | 13 | 314 | 6.4 | 9.7 | 0.00 | 0.00 | 0.00 | 56 | 1020.6 |
| 20260504230228 | 12 | 298 | 4.8 | 9.7 | 0.00 | 0.00 | 0.00 | 57 | 1020.6 |
| 20260504225727 | 12 | 297 | 6.4 | 17.7 | 0.00 | 0.00 | 0.00 | 55 | 1020.6 |
| 20260504225223 | 12 | 308 | 9.7 | 19.3 | 0.00 | 0.00 | 0.00 | 57 | 1020.6 |
| 20260504224724 | 12 | 283 | 11.3 | 19.3 | 0.00 | 0.00 | 0.00 | 54 | 1020.6 |
| 20260504224226 | 12 | 311 | 11.3 | 19.3 | 0.00 | 0.00 | 0.00 | 61 | 1020.6 |
| 20260504223723 | 12 | 337 | 11.3 | 19.3 | 0.00 | 0.00 | 0.00 | 58 | 1020.6 |
| 20260504223223 | 12 | 314 | 9.7 | 19.3 | 0.00 | 0.00 | 0.00 | 55 | 1020.6 |
| 20260504222723 | 13 | 304 | 8.0 | 16.1 | 0.00 | 0.00 | 0.00 | 52 | 1020.6 |
| 20260504222226 | 13 | 335 | 6.4 | 12.9 | 0.00 | 0.00 | 0.00 | 48 | 1020.6 |
| 20260504221954 | 13 | 307 | 6.4 | 12.9 | 0.00 | 0.00 | 0.00 | 48 | 1020.6 |
| 20260504221221 | 13 | 12 | 6.4 | 14.5 | 0.00 | 0.00 | 0.00 | 48 | 1020.6 |
| 20260504220723 | 13 | 350 | 9.7 | 20.9 | 0.00 | 0.00 | 0.00 | 48 | 1020.6 |
| 20260504220221 | 13 | 336 | 12.9 | 22.5 | 0.00 | 0.00 | 0.00 | 47 | 1020.6 |
| 20260504215721 | 14 | 8 | 14.5 | 27.4 | 0.00 | 0.00 | 0.00 | 44 | 1020.6 |
| 20260504215223 | 14 | 58 | 16.1 | 29.0 | 0.00 | 0.00 | 0.00 | 43 | 1020.6 |
| 20260504214721 | 15 | 60 | 17.7 | 29.0 | 0.00 | 0.00 | 0.00 | 41 | 1020.6 |
| 20260504214455 | 15 | 318 | 19.3 | 30.6 | 0.00 | 0.00 | 0.00 | 40 | 1020.6 |
| 20260504213722 | 15 | 35 | 17.7 | 32.2 | 0.00 | 0.00 | 0.00 | 39 | 1020.6 |
| 20260504213222 | 16 | 75 | 16.1 | 32.2 | 0.00 | 0.00 | 0.00 | 37 | 1020.6 |
| 20260504212725 | 16 | 34 | 14.5 | 29.0 | 0.00 | 0.00 | 0.00 | 37 | 1020.6 |
| 20260504212222 | 17 | 8 | 8.0 | 25.7 | 0.00 | 0.00 | 0.00 | 35 | 1020.6 |
| 20260504211721 | 18 | 38 | 6.4 | 14.5 | 0.00 | 0.00 | 0.00 | 33 | 1020.6 |
| 20260504211221 | 18 | 108 | 8.0 | 16.1 | 0.00 | 0.00 | 0.00 | 33 | 1020.6 |
| 20260504210723 | 19 | 86 | 4.8 | 16.1 | 0.00 | 0.00 | 0.00 | 33 | 1020.6 |
| 20260504210223 | 18 | 116 | 3.2 | 9.7 | 0.00 | 0.00 | 0.00 | 32 | 1020.6 |
| 20260504205722 | 18 | 94 | 1.6 | 9.7 | 0.00 | 0.00 | 0.00 | 33 | 1020.6 |
| 20260504205221 | 19 | 103 | 3.2 | 8.0 | 0.00 | 0.00 | 0.00 | 30 | 1020.6 |
| 20260504204723 | 19 | 84 | 3.2 | 9.7 | 0.00 | 0.00 | 0.00 | 31 | 1020.6 |
| 20260504204222 | 18 | 137 | 3.2 | 9.7 | 0.00 | 0.00 | 0.00 | 32 | 1020.6 |
| 20260504203722 | 18 | 229 | 4.8 | 14.5 | 0.00 | 0.00 | 0.00 | 33 | 1020.6 |
| 20260504203222 | 18 | 89 | 3.2 | 14.5 | 0.00 | 0.00 | 0.00 | 33 | 1020.6 |
| 20260504202723 | 18 | 108 | 1.6 | 11.3 | 0.00 | 0.00 | 0.00 | 35 | 1020.6 |
| 20260504202222 | 17 | 281 | 1.6 | 11.3 | 0.00 | 0.00 | 0.00 | 35 | 1020.6 |
| 20260504201722 | 17 | 116 | 3.2 | 11.3 | 0.00 | 0.00 | 0.00 | 35 | 1020.6 |
| 20260504201219 | 18 | 103 | 1.6 | 9.7 | 0.00 | 0.00 | 0.00 | 35 | 1020.6 |
| 20260504200719 | 17 | 106 | 1.6 | 8.0 | 0.00 | 0.00 | 0.00 | 38 | 1020.6 |
| 20260504200221 | 16 | 242 | 1.6 | 9.7 | 0.00 | 0.00 | 0.00 | 39 | 1020.6 |
| 20260504195721 | 16 | 259 | 1.6 | 9.7 | 0.00 | 0.00 | 0.00 | 41 | 1020.6 |
| 20260504195219 | 16 | 96 | 1.6 | 9.7 | 0.00 | 0.00 | 0.00 | 39 | 1020.6 |
| 20260504194721 | 16 | 191 | 1.6 | 9.7 | 0.00 | 0.00 | 0.00 | 40 | 1020.6 |
| 20260504194220 | 16 | 238 | 3.2 | 9.7 | 0.00 | 0.00 | 0.00 | 40 | 1020.6 |
| 20260504193721 | 16 | 110 | 4.8 | 17.7 | 0.00 | 0.00 | 0.00 | 39 | 1020.6 |
| 20260504193220 | 16 | 110 | 6.4 | 19.3 | 0.00 | 0.00 | 0.00 | 37 | 1020.6 |
| 20260504192719 | 17 | 268 | 4.8 | 19.3 | 0.00 | 0.00 | 0.00 | 36 | 1020.6 |
| 20260504192219 | 18 | 78 | 4.8 | 14.5 | 0.00 | 0.00 | 0.00 | 32 | 1020.6 |
| 20260504191950 | 19 | 83 | 3.2 | 9.7 | 0.00 | 0.00 | 0.00 | 27 | 1020.6 |
| 20260504191220 | 20 | 95 | 3.2 | 11.3 | 0.00 | 0.00 | 0.00 | 25 | 1020.6 |
| 20260504190721 | 19 | 280 | 6.4 | 20.9 | 0.00 | 0.00 | 0.00 | 26 | 1020.6 |
| 20260504190448 | 19 | 312 | 9.7 | 20.9 | 0.00 | 0.00 | 0.00 | 25 | 1020.6 |
| 20260504185719 | 20 | 301 | 11.3 | 25.7 | 0.00 | 0.00 | 0.00 | 25 | 1020.6 |
| 20260504185219 | 20 | 282 | 9.7 | 25.7 | 0.00 | 0.00 | 0.00 | 24 | 1020.6 |
| 20260504184718 | 20 | 297 | 11.3 | 20.9 | 0.00 | 0.00 | 0.00 | 25 | 1020.6 |
| 20260504184216 | 21 | 309 | 11.3 | 20.9 | 0.00 | 0.00 | 0.00 | 23 | 1020.6 |
| 20260504183717 | 21 | 295 | 9.7 | 20.9 | 0.00 | 0.00 | 0.00 | 22 | 1020.6 |
| 20260504183214 | 21 | 267 | 12.9 | 24.1 | 0.00 | 0.00 | 0.00 | 21 | 1020.6 |
| 20260504182713 | 21 | 279 | 14.5 | 25.7 | 0.00 | 0.00 | 0.00 | 23 | 1020.6 |
| 20260504182213 | 21 | 300 | 12.9 | 25.7 | 0.00 | 0.00 | 0.00 | 23 | 1020.6 |
| 20260504181712 | 21 | 276 | 12.9 | 24.1 | 0.00 | 0.00 | 0.00 | 21 | 1020.6 |
| 20260504181213 | 21 | 319 | 14.5 | 25.7 | 0.00 | 0.00 | 0.00 | 25 | 1020.6 |
| 20260504180711 | 20 | 334 | 17.7 | 27.4 | 0.00 | 0.00 | 0.00 | 24 | 1020.6 |
| 20260504180442 | 20 | 328 | 17.7 | 27.4 | 0.00 | 0.00 | 0.00 | 25 | 1020.6 |
| 20260504175711 | 20 | 305 | 17.7 | 27.4 | 0.00 | 0.00 | 0.00 | 26 | 1020.6 |
| 20260504175210 | 20 | 299 | 19.3 | 27.4 | 0.00 | 0.00 | 0.00 | 26 | 1020.6 |
| 20260504174711 | 20 | 307 | 16.1 | 25.7 | 0.00 | 0.00 | 0.00 | 25 | 1020.6 |
| 20260504174209 | 20 | 294 | 16.1 | 25.7 | 0.00 | 0.00 | 0.00 | 27 | 1020.6 |
| 20260504173710 | 20 | 290 | 14.5 | 24.1 | 0.00 | 0.00 | 0.00 | 27 | 1020.6 |
| 20260504173207 | 20 | 295 | 14.5 | 24.1 | 0.00 | 0.00 | 0.00 | 26 | 1020.6 |
| 20260504172710 | 19 | 289 | 12.9 | 22.5 | 0.00 | 0.00 | 0.00 | 27 | 1020.6 |
| 20260504172208 | 19 | 309 | 14.5 | 24.1 | 0.00 | 0.00 | 0.00 | 27 | 1020.6 |
| 20260504171708 | 19 | 312 | 14.5 | 24.1 | 0.00 | 0.00 | 0.00 | 26 | 1020.6 |
| 20260504171207 | 19 | 304 | 14.5 | 25.7 | 0.00 | 0.00 | 0.00 | 28 | 1020.6 |
| 20260504170709 | 18 | 283 | 16.1 | 25.7 | 0.00 | 0.00 | 0.00 | 28 | 1020.6 |
| 20260504170208 | 18 | 311 | 16.1 | 27.4 | 0.00 | 0.00 | 0.00 | 29 | 1020.6 |
| 20260504160208 | 16 | 290 | 6.4 | 19.3 | 0.00 | 0.00 | 0.00 | 30 | 1020.6 |
| 20260504160204 | 16 | 300 | 6.4 | 19.3 | 0.00 | 0.00 | 0.00 | 31 | 1020.6 |
| 20260504150703 | 16 | 280 | 6.4 | 14.5 | 0.00 | 0.00 | 0.00 | 30 | 1020.6 |
| 20260504150201 | 16 | 295 | 8.0 | 16.1 | 0.00 | 0.00 | 0.00 | 30 | 1020.6 |
| 20260504141158 | 15 | 286 | 3.2 | 11.3 | 0.00 | 0.00 | 0.00 | 30 | 1020.6 |
| 20260504140701 | 15 | 287 | 1.6 | 11.3 | 0.00 | 0.00 | 0.00 | 29 | 1020.6 |
| 20260504140206 | 15 | 265 | 3.2 | 9.7 | 0.00 | 0.00 | 0.00 | 27 | 1020.6 |
| 20260504140201 | 15 | 336 | 1.6 | 8.0 | 0.00 | 0.00 | 0.00 | 29 | 1020.6 |
| 20260504130656 | 14 | 296 | 6.4 | 12.9 | 0.00 | 0.00 | 0.00 | 26 | 1020.6 |
| 20260504130157 | 13 | 295 | 6.4 | 12.9 | 0.00 | 0.00 | 0.00 | 26 | 1020.6 |
| 20260504120156 | 13 | 299 | 6.4 | 12.9 | 0.00 | 0.00 | 0.00 | 24 | 1020.6 |
| 20260504110655 | 11 | 269 | 0.0 | 0.0 | 0.00 | 0.00 | 0.00 | 28 | 1020.6 |
| 20260504110202 | 11 | 271 | 0.0 | 1.6 | 0.00 | 0.00 | 0.00 | 29 | 1020.6 |
| 20260504110156 | 11 | 269 | 0.0 | 1.6 | 0.00 | 0.00 | 0.00 | 28 | 1020.6 |
| 20260504100424 | 10 | 290 | 0.0 | 0.0 | 0.00 | 0.00 | 0.00 | 38 | 1020.6 |